[[{"header":{"parameterUnit":"m.s-1","parameterCategory":1,"la1":30.2991,"la2":30.254,"lo1":-89.0895,"lo2":-89.0444,"dy":0.0017,"dx":0.0017,"nx":28,"ny":28,"refTime":"2024-08-09T15:00:00:Z","depth":0,"parameterNumber":2,"parameterNumberName":"U-component_of_WINDS"},"data":[0,0,0,0,0,0,0,0,0,0,0,0,0,0,0,0,0,0,0,0,0,0,0,0,0,0,0,0,0,0,0,0,0,0,0,0,0,0,0,0,0,0,0,0,0,0,0,0,0,0,0,0,0,0,0,0,0,0,0.0102,0.0101,0,0.0013,0.0012,0.0011,-0.0015,-0.0014,-0.0014,-0.0013,-0.0107,-0.011,-0.0113,0,0,0,0,0,0,0,0,0,0,0,0,0,0.0248,0.0245,0.0102,0.0101,0.01,0.0013,0.0012,0.0011,-0.0015,-0.0014,-0.0013,-0.0013,-0.0106,-0.011,-0.0113,0,0,0,0,0,0,0,0,0,0,0,0,0,0.0174,0.0244,0.0102,0.0077,0.0074,0.0013,0.0012,0.001,-0.0015,-0.0014,-0.0013,-0.0013,-0.0105,-0.0109,-0.0114,-0.0156,0,0,-0.0127,-0.0129,0,0,0,0,0,0,0,0,0.0178,0.0169,0.0082,0.0078,0.0075,0.0011,0.0029,-0.0045,-0.0015,0.0019,-0.0013,-0.0012,-0.0068,-0.0076,-0.0094,-0.016,-0.0164,-0.0127,-0.013,-0.0132,-0.0133,0,0,0,0,0,0,0,0.0183,0.0172,0.0067,0.008,0.0076,0.0069,0.0059,0.0015,-0.0028,0.0016,0.0014,0.0004,-0.007,-0.009,-0.0097,-0.0165,-0.0127,-0.0131,-0.0134,-0.0136,-0.027,-0.0271,0,0,0,0,0,0,0.0193,0.0177,0.007,0.0064,0.0129,0.0066,0.0055,0.0031,-0.0028,-0.0036,0.0003,0.0003,-0.0083,-0.0091,-0.01,-0.0154,-0.0132,-0.0136,-0.0139,-0.0269,-0.0271,-0.0272,0,0,0,0,0,0,0.0196,0.0184,0.0073,0.012,0.0105,0.0063,0.0035,0.0029,0.0009,-0.0037,-0.0045,-0.0009,-0.0082,-0.0094,-0.0141,-0.0157,-0.0138,-0.0142,-0.0268,-0.027,-0.0271,-0.0261,0,0,0,0,0,0,0.0201,0.0185,0.0169,0.012,0.0103,0.0034,0.0035,0.0026,0.0002,0.0,-0.0051,-0.0058,-0.0083,-0.0135,-0.0146,-0.0163,-0.0146,-0.0267,-0.0269,-0.0271,-0.026,-0.0262,-0.0263,0,0,0,0,0,0.0206,0.0175,0.0168,0.0156,0.0082,0.0033,0.0023,-0.0003,0.0001,-0.0016,-0.0046,-0.0057,-0.0153,-0.0139,-0.0152,-0.0171,-0.0266,-0.0268,-0.027,-0.0259,-0.0261,-0.0263,0,0,0,0,0,0,0.0222,0.0168,0.016,0.0112,0.0078,0.0029,0.0007,-0.0005,-0.0042,-0.0042,-0.0074,-0.0085,-0.0131,-0.0155,-0.0139,-0.0215,-0.021,-0.0215,-0.0197,-0.02,-0.0201,-0.0195,-0.0149,0,0,0,0,0,0.0221,0.0186,0.014,0.0103,0.0086,0.0049,0.0027,0.001,-0.0028,-0.0043,-0.0076,-0.0113,-0.0152,-0.0177,-0.0215,-0.0263,-0.0275,-0.0282,-0.0284,-0.0285,-0.0289,-0.0317,-0.0321,-0.0278,-0.0278,-0.0278,0,0,0.0216,0.0182,0.0162,0.0105,0.0076,0.004,0.0037,-0.0001,-0.0028,-0.0049,-0.0096,-0.0122,-0.0165,-0.0213,-0.0236,-0.0235,-0.0303,-0.0287,-0.0288,-0.0292,-0.0319,-0.0323,-0.0327,-0.028,-0.0279,-0.0279,0,0,0.019,0.0161,0.0126,0.0098,0.0054,0.0031,0.0023,-0.0024,-0.0042,-0.0089,-0.0106,-0.0139,-0.0205,-0.0235,-0.0259,-0.0295,-0.0307,-0.0307,-0.0316,-0.0342,-0.0346,-0.0349,-0.0363,-0.0368,-0.031,-0.031,-0.031,0,0.0189,0.0135,0.011,0.0073,0.0048,0.0029,-0.0007,-0.0034,-0.0088,-0.0105,-0.0103,-0.0186,-0.0216,-0.0272,-0.028,-0.0299,-0.031,-0.0302,-0.0343,-0.0346,-0.035,-0.0364,-0.0369,-0.031,-0.031,-0.031,-0.031,0,0.0137,0.01,0.0077,0.0026,-0.0001,-0.0037,-0.0069,-0.0094,-0.0108,-0.0132,-0.018,-0.0217,-0.0263,-0.0277,-0.0292,-0.0335,-0.0333,-0.0336,-0.0333,-0.0353,-0.0367,-0.0372,-0.031,-0.031,-0.031,-0.031,0,0,0.0116,0.0053,0.0045,0.0022,-0.0027,-0.0057,-0.0093,-0.0137,-0.0158,-0.0194,-0.0227,-0.0282,-0.0285,-0.0312,-0.033,-0.0353,-0.0381,-0.0354,-0.0355,-0.0358,-0.0431,-0.043,-0.0435,-0.0388,-0.0389,-0.039,-0.0428,0,0.0082,0.0016,-0.0008,-0.0063,-0.0098,-0.0116,-0.0148,-0.0182,-0.0205,-0.0238,-0.0264,-0.0303,-0.0303,-0.032,-0.0343,-0.0372,-0.0396,-0.037,-0.042,-0.0421,-0.041,-0.0442,-0.0441,-0.0475,-0.0433,-0.0434,-0.0435,0,0.0033,-0.0002,-0.006,-0.0104,-0.012,-0.0148,-0.0191,-0.0222,-0.026,-0.0276,-0.0305,-0.0321,-0.0362,-0.0354,-0.041,-0.0391,-0.0413,-0.043,-0.0432,-0.044,-0.0431,-0.0452,-0.0487,-0.0492,-0.0443,-0.0443,-0.0442,0,0.0023,-0.004,-0.0083,-0.0102,-0.0154,-0.0173,-0.0196,-0.0234,-0.0259,-0.0295,-0.0312,-0.0353,-0.0376,-0.0408,-0.0435,-0.0427,-0.0489,-0.0483,-0.0504,-0.0503,-0.0518,-0.0517,-0.0558,-0.0529,-0.0529,-0.0528,-0.0528,0,-0.0013,-0.0049,-0.0088,-0.0115,-0.0155,-0.0181,-0.022,-0.0244,-0.0277,-0.031,-0.0327,-0.0357,-0.0391,-0.0425,-0.0446,-0.049,-0.05,-0.0514,-0.052,-0.0514,-0.0512,-0.053,-0.0529,-0.053,-0.053,-0.0529,-0.0529,0,-0.0033,-0.0061,-0.0109,-0.0153,-0.0165,-0.0193,-0.0232,-0.0259,-0.0282,-0.0322,-0.0333,-0.037,-0.0411,-0.0441,-0.0494,-0.0509,-0.0556,-0.0561,-0.0543,-0.0546,-0.0565,-0.0564,-0.0621,-0.063,-0.0593,-0.0593,-0.0593,0,-0.0055,-0.0083,-0.013,-0.0152,-0.0174,-0.021,-0.0235,-0.0262,-0.0288,-0.0333,-0.0354,-0.0396,-0.0432,-0.0497,-0.0529,-0.057,-0.0577,-0.0594,-0.0584,-0.0576,-0.0579,-0.0578,-0.0581,-0.0596,-0.0597,-0.0597,-0.0597,0,-0.0092,-0.0104,-0.0139,-0.0179,-0.0208,-0.024,-0.0273,-0.0291,-0.0324,-0.0351,-0.0393,-0.042,-0.0474,-0.0516,-0.056,-0.0584,-0.0597,-0.06,-0.0607,-0.0602,-0.0591,-0.0598,-0.0549,-0.0599,-0.0599,-0.0599,-0.0598,-0.0598,-0.0115,-0.014,-0.0177,-0.0215,-0.0242,-0.0273,-0.03,-0.0326,-0.0361,-0.0407,-0.042,-0.0464,-0.0501,-0.0561,-0.0586,-0.0621,-0.062,-0.063,-0.0633,-0.0636,-0.0636,-0.0583,-0.0629,-0.0629,-0.0629,-0.0629,-0.0629,0,-0.0154,-0.0178,-0.0213,-0.0258,-0.0288,-0.0295,-0.0331,-0.0357,-0.0394,-0.0428,-0.0462,-0.051,-0.0551,-0.0585,-0.0627,-0.0649,-0.0655,-0.0659,-0.0659,-0.0664,-0.0634,-0.0624,-0.0653,-0.0653,-0.0653,-0.0653,-0.0653,-0.0653,-0.0178,-0.0221,-0.0237,-0.0294,-0.0318,-0.036,-0.0381,-0.0409,-0.0436,-0.0488,-0.0522,-0.0543,-0.0578,-0.0622,-0.066,-0.0669,-0.0684,-0.0687,-0.0698,-0.0669,-0.0666,-0.0664,-0.0655,-0.069,-0.069,-0.0725,-0.0726,-0.0726]},{"header":{"parameterUnit":"m.s-1","parameterCategory":1,"la1":30.2991,"la2":30.254,"lo1":-89.0895,"lo2":-89.0444,"dy":0.0017,"dx":0.0017,"nx":28,"ny":28,"refTime":"2024-08-09T15:00:00:Z","depth":0,"parameterNumber":3,"parameterNumberName":"V-component_of_WINDS"},"data":[0,0,0,0,0,0,0,0,0,0,0,0,0,0,0,0,0,0,0,0,0,0,0,0,0,0,0,0,0,0,0,0,0,0,0,0,0,0,0,0,0,0,0,0,0,0,0,0,0,0,0,0,0,0,0,0,0,0,-3.9488,-3.9489,0,-3.9613,-3.9614,-3.9616,-3.958,-3.9577,-3.9574,-3.9572,-3.9698,-3.9704,-3.9709,0,0,0,0,0,0,0,0,0,0,0,0,0,-3.9214,-3.9219,-3.9487,-3.9489,-3.9491,-3.9613,-3.9615,-3.9616,-3.958,-3.9577,-3.9574,-3.9571,-3.9696,-3.9703,-3.971,0,0,0,0,0,0,0,0,0,0,0,0,0,-3.9335,-3.9221,-3.9487,-3.9487,-3.9489,-3.9613,-3.9615,-3.9617,-3.9581,-3.9577,-3.9573,-3.9569,-3.9694,-3.9702,-3.9711,-3.9842,0,0,-3.9737,-3.9741,0,0,0,0,0,0,0,0,-3.9329,-3.9345,-3.9486,-3.9488,-3.9489,-3.9577,-3.9564,-3.9692,-3.9582,-3.9546,-3.9572,-3.9568,-3.9661,-3.9672,-3.9704,-3.9847,-3.9853,-3.9738,-3.9743,-3.9747,-3.9749,0,0,0,0,0,0,0,-3.932,-3.934,-3.9537,-3.9488,-3.949,-3.948,-3.9493,-3.9588,-3.9623,-3.9549,-3.9546,-3.9562,-3.9661,-3.9696,-3.9706,-3.9855,-3.9738,-3.9745,-3.9751,-3.9754,-4.0111,-4.0115,0,0,0,0,0,0,-3.9311,-3.9333,-3.9533,-3.9541,-3.9398,-3.9488,-3.9503,-3.9553,-3.9622,-3.9629,-3.9565,-3.956,-3.9683,-3.9696,-3.9711,-3.9868,-3.9747,-3.9755,-3.976,-4.0107,-4.0112,-4.0117,0,0,0,0,0,0,-3.9305,-3.9329,-3.9528,-3.9436,-3.9461,-3.9497,-3.9553,-3.9557,-3.9592,-3.9635,-3.964,-3.9594,-3.968,-3.9699,-3.9809,-3.9872,-3.9759,-3.9767,-4.0102,-4.0109,-4.0114,-4.0184,0,0,0,0,0,0,-3.9297,-3.9327,-3.9378,-3.9438,-3.9466,-3.9626,-3.9557,-3.9562,-3.9607,-3.9601,-3.9663,-3.967,-3.9679,-3.9797,-3.9818,-3.9882,-3.9774,-4.0096,-4.0105,-4.0112,-4.0177,-4.0193,-4.0206,0,0,0,0,0,-3.9288,-3.9392,-3.9381,-3.9405,-3.953,-3.9629,-3.9645,-3.9654,-3.9612,-3.9663,-3.969,-3.9668,-3.9862,-3.9808,-3.9832,-3.99,-4.0092,-4.0102,-4.0112,-4.017,-4.0189,-4.0206,0,0,0,0,0,0,-3.9338,-3.94,-3.9388,-3.9515,-3.9567,-3.9623,-3.9687,-3.9674,-3.9739,-3.973,-3.9737,-3.9751,-3.9865,-3.9893,-3.9833,-4.0029,-3.9971,-3.9986,-4.0007,-4.0026,-4.004,-4.0031,-3.9781,0,0,0,0,0,-3.9364,-3.944,-3.949,-3.9597,-3.9624,-3.9651,-3.9695,-3.9697,-3.9751,-3.9772,-3.9808,-3.9861,-3.9933,-3.9981,-4.005,-4.018,-4.0193,-4.0238,-4.0253,-4.0265,-4.0278,-4.0348,-4.0369,-4.0149,-4.0149,-4.0148,0,0,-3.9418,-3.9461,-3.9509,-3.9608,-3.9649,-3.9727,-3.967,-3.9755,-3.9812,-3.9785,-3.9892,-3.992,-3.9979,-4.01,-4.0155,-4.0127,-4.0341,-4.0277,-4.0286,-4.0293,-4.0361,-4.0381,-4.04,-4.0155,-4.0154,-4.0153,0,0,-3.9556,-3.9597,-3.9691,-3.9733,-3.9796,-3.9813,-3.9836,-3.9894,-3.9912,-4.0019,-4.0,-4.0068,-4.0193,-4.0236,-4.0274,-4.0429,-4.0411,-4.0451,-4.0528,-4.0597,-4.0614,-4.0629,-4.0685,-4.0704,-4.0464,-4.0464,-4.0464,0,-3.9616,-3.9733,-3.974,-3.9827,-3.9871,-3.9851,-3.9945,-3.9985,-4.0067,-4.0098,-4.0065,-4.0222,-4.026,-4.0391,-4.0429,-4.046,-4.0486,-4.0444,-4.0611,-4.0627,-4.0641,-4.0694,-4.0715,-4.0468,-4.0468,-4.0467,-4.0467,0,-3.9803,-3.9885,-3.9953,-4.0033,-4.0085,-4.0175,-4.0195,-4.0246,-4.0244,-4.0264,-4.0374,-4.0419,-4.0497,-4.0528,-4.0526,-4.0659,-4.0639,-4.0609,-4.055,-4.0667,-4.0716,-4.0736,-4.0475,-4.0473,-4.0472,-4.0471,0,0,-3.9977,-4.006,-4.0085,-4.0122,-4.0189,-4.0252,-4.0341,-4.0418,-4.0462,-4.0518,-4.0593,-4.0699,-4.0671,-4.0715,-4.0717,-4.0777,-4.0897,-4.074,-4.0741,-4.0767,-4.1046,-4.1069,-4.1092,-4.0885,-4.0889,-4.0892,-4.1041,0,-4.0122,-4.0279,-4.0288,-4.0431,-4.0506,-4.0487,-4.0565,-4.0614,-4.0636,-4.0702,-4.0725,-4.08,-4.0758,-4.0784,-4.0843,-4.087,-4.0953,-4.0859,-4.0954,-4.0957,-4.094,-4.1118,-4.1142,-4.1281,-4.106,-4.1064,-4.1066,0,-4.0312,-4.0375,-4.0526,-4.0582,-4.0614,-4.0684,-4.0755,-4.0819,-4.0874,-4.0885,-4.0934,-4.0928,-4.1018,-4.0956,-4.108,-4.1016,-4.1055,-4.1074,-4.1079,-4.1089,-4.1019,-4.1132,-4.1325,-4.1346,-4.1097,-4.1094,-4.1092,0,-4.0424,-4.0547,-4.0653,-4.0684,-4.0753,-4.0802,-4.0833,-4.0885,-4.093,-4.0992,-4.1022,-4.1093,-4.1132,-4.1187,-4.1199,-4.1153,-4.1323,-4.1262,-4.1335,-4.1335,-4.1372,-4.137,-4.1574,-4.1397,-4.1396,-4.1396,-4.1396,0,-4.0585,-4.0678,-4.0704,-4.077,-4.0873,-4.0882,-4.0983,-4.101,-4.1056,-4.1126,-4.1113,-4.1178,-4.1191,-4.1259,-4.1269,-4.137,-4.1388,-4.1399,-4.1401,-4.1401,-4.1399,-4.1427,-4.1417,-4.1401,-4.14,-4.1399,-4.1398,0,-4.0728,-4.075,-4.0864,-4.092,-4.0936,-4.1009,-4.1057,-4.1119,-4.1139,-4.1227,-4.1248,-4.1279,-4.1358,-4.1376,-4.147,-4.1476,-4.1596,-4.1588,-4.1578,-4.1578,-4.165,-4.1643,-4.1879,-4.1911,-4.1712,-4.1714,-4.1716,0,-4.0829,-4.09,-4.0964,-4.101,-4.1044,-4.1118,-4.1165,-4.1176,-4.1225,-4.1293,-4.1347,-4.1424,-4.1487,-4.1614,-4.1645,-4.1716,-4.171,-4.1788,-4.172,-4.1718,-4.1711,-4.1707,-4.1714,-4.1801,-4.1803,-4.1805,-4.1806,0,-4.1007,-4.1014,-4.1083,-4.1155,-4.1212,-4.1269,-4.1324,-4.1362,-4.138,-4.1436,-4.1517,-4.1566,-4.1662,-4.1739,-4.1811,-4.1841,-4.1827,-4.1827,-4.1848,-4.1848,-4.184,-4.1846,-4.1614,-4.1822,-4.182,-4.1819,-4.1818,-4.1817,-4.1133,-4.1195,-4.125,-4.1326,-4.1369,-4.142,-4.1481,-4.1509,-4.1577,-4.1657,-4.1659,-4.1748,-4.18,-4.1895,-4.193,-4.1998,-4.1974,-4.2004,-4.2012,-4.2019,-4.2026,-4.1828,-4.2011,-4.2011,-4.201,-4.201,-4.201,0,-4.131,-4.1344,-4.1415,-4.1492,-4.1552,-4.1534,-4.1593,-4.1645,-4.1723,-4.1774,-4.1836,-4.1929,-4.2004,-4.204,-4.2114,-4.2162,-4.2157,-4.2181,-4.2177,-4.2185,-4.2043,-4.2018,-4.2183,-4.2183,-4.2183,-4.2183,-4.2183,-4.2183,-4.141,-4.1514,-4.1528,-4.1653,-4.1686,-4.1774,-4.1809,-4.1856,-4.1897,-4.2002,-4.2064,-4.2087,-4.2132,-4.2209,-4.2276,-4.2285,-4.2313,-4.234,-4.2345,-4.2212,-4.2195,-4.2178,-4.2154,-4.2346,-4.2346,-4.2482,-4.2483,-4.2484]}]]